Location: Crescent
(42.8242°N, 73.7329°W)
Time: 05:05:53
(UTC+00:00)

Transit 4A - Pass Details

Date: 21 February 2026
Orbit: 864 x 977 km, 66.8° (Epoch: 5 March)

Event Time Altitude Azimuth Distance (km) Brightness Sun altitude
Rises 18:32:44 0° 311° (NW) 3,636 10.9 33.4°
Reaches altitude 10° 18:36:38 10° 287° (WNW) 2,703 10.5 33.1°
Maximum altitude 18:39:38 14° 258° (WSW) 2,437 10.8 32.9°
Drops below altitude 10° 18:42:39 10° 230° (SW) 2,714 11.6 32.6°
Sets 18:46:37 0° 206° (SSW) 3,661 12.1 32.3°
